Regional Weather Roundup
Issued by NWS San Angelo, TX

Home | Current Version | Previous Version | Text Only | Print | Product List | Glossary On
Versions: 1 2 3 4 5 6 7 8 9 10 11 12 13 14 15 16 17 18 19 20 21 22 23 24 25 26 27 28 29 30 31 32 33 34 35 36 37 38 39 40 41 42 43 44 45 46 47 48 49 50
459
ASUS44 KSJT 222010
RWRSJT
WEST CENTRAL TEXAS REGIONAL WEATHER ROUNDUP
NATIONAL WEATHER SERVICE SAN ANGELO TX
300 PM CDT FRI MAY 22 2015

NOTE: "FAIR" INDICATES FEW OR NO CLOUDS BELOW 12,000 FEET WITH NO
SIGNIFICANT WEATHER AND/OR OBSTRUCTIONS TO VISIBILITY.

TXZ049-054-064>066-071>073-076>078-098-099-113-114-127-128-139-140-
154-155-168>170-222100
...LOCATIONS ACROSS WEST CENTRAL TEXAS...

CITY           SKY/WX    TMP DP  RH WIND       PRES   REMARKS
SAN ANGELO     PTSUNNY   77  67  71 S12       30.06F
ABILENE        CLOUDY    70  64  81 S13       30.10F
DYESS AFB      CLOUDY    71  61  71 S8        30.08F
JUNCTION       CLOUDY    74  67  78 S12       30.09F
SWEETWATER     CLOUDY    70  65  82 S8        30.12F
BROWNWOOD      CLOUDY    72  66  83 SE8       30.10S
COLEMAN        CLOUDY    70  66  88 S9        30.10F
SONORA         PTSUNNY   79  66  65 SE9G16    30.10F
OZONA          MOCLDY    79  64  61 SE10      30.08F
BRADY          CLOUDY    72  68  88 SE12      30.10S
$$

TEXAS PANHANDLE/OKLAHOMA PANHANDLE

CITY           SKY/WX    TMP DP  RH WIND       PRES   REMARKS
AMARILLO       CLOUDY    60  54  80 S16       30.11S
BORGER         CLOUDY    64  54  69 S9        30.09F
CANADIAN       CLOUDY    60  57  91 S8G16     30.10F
DALHART        CLOUDY    63  51  65 S21       30.08F
DUMAS          MOCLDY    62  53  71 S13       30.09S
GUYMON         NOT AVBL
HEREFORD       CLOUDY    63  55  75 MISG      30.11F
PAMPA          CLOUDY    58  54  86 S12       30.12S
PERRYTON       CLOUDY    57  55  90 SE15      30.09F
$$

SOUTHERN PANHANDLE/SOUTH PLAINS/ROLLING PLAINS

CITY           SKY/WX    TMP DP  RH WIND       PRES   REMARKS
LUBBOCK        CLOUDY    62  57  83 SE10      30.11F
SNYDER         CLOUDY    62  61  94 E3        30.10F
CHILDRESS      CLOUDY    63  58  83 S8        30.11F
SEMINOLE       CLOUDY    64  62  93 E7        30.11F
$$

PERMIAN BASIN

CITY           SKY/WX    TMP DP  RH WIND       PRES   REMARKS
MIDLAND        PTSUNNY   74  64  71 NE3       30.05F
ODESSA         PTSUNNY   73  62  68 CALM      30.06F
WINK           CLOUDY    73  60  63 E7        30.03F
$$

FAR WEST/SOUTHWEST MOUNTAINS/TRANS PECOS

CITY           SKY/WX    TMP DP  RH WIND       PRES   REMARKS
ALPINE         PTCLDY    85  48  27 S21G31    30.10F
DRYDEN           N/A     80  64  58 E10G21    30.01F
EL PASO        MOSUNNY   82  41  23 S8        29.98F
FORT STOCKTON  SUNNY     79  65  62 NE12      30.02F
GUADALUPE PASS MOSUNNY   69  56  62 E16G22    30.12F
MARFA          SUNNY     84  45  24 SW17G28   30.10F
PECOS          CLOUDY    70  60  71 CALM      30.03F
$$

DALLAS/FORT WORTH METROPLEX

CITY           SKY/WX    TMP DP  RH WIND       PRES   REMARKS
DFW AIRPORT    CLOUDY    62  60  93 N7        30.13S
FTW MEACHAM    CLOUDY    63  59  87 E5        30.13S
DAL-EXECUTIVE  CLOUDY    69  61  75 E7        30.12F
GRAND PRAIRIE  CLOUDY    68  61  77 N5        30.14F
ADDISON        CLOUDY    64  59  82 NE7       30.16F
MESQUITE       MOCLDY    72  61  68 E6        30.13F
LANCASTER      CLOUDY    71  60  67 E8        30.13F
$$

NORTH CENTRAL TEXAS

CITY           SKY/WX    TMP DP  RH WIND       PRES   REMARKS
SHRMAN/DENISON CLOUDY    60  57  89 E8        30.18S
GAINESVILLE    CLOUDY    61  55  82 E9        30.16F
BRIDGEPORT     DRIZZLE   61  61 100 SE7       30.14S
DENTON         LGT RAIN  61  58  90 E9        30.14S
WAXAHACHIE     CLOUDY    71  65  81 E3        30.13S
GRANBURY         N/A     67  63  88 SE7       30.13S FOG
$$

WESTERN NORTH TEXAS

CITY           SKY/WX    TMP DP  RH WIND       PRES   REMARKS
WICHITA FALLS  LGT RAIN  59  56  89 E12       30.14S
VERNON         CLOUDY    62  56  83 SE13      30.13S
BRECKENRIDGE   CLOUDY    68  64  87 SE7       30.10S
COMANCHE       CLOUDY    69  68  96 SE9       30.11F
$$

CENTRAL AND SOUTH CENTRAL TEXAS

CITY           SKY/WX    TMP DP  RH WIND       PRES   REMARKS
AUSTIN/BERGSTM CLOUDY    78  70  76 SE13      30.07F
WACO           CLOUDY    76  66  71 S10       30.10F
HILLSBORO      CLOUDY    74  63  69 SE9       30.11S
TEMPLE         CLOUDY    72  64  78 SE10      30.10S
KILLEEN-GRAY   CLOUDY    68  67  96 SE6       30.11R
FORT HOOD      CLOUDY    70  67  90 SE8       30.10S
GEORGETOWN     CLOUDY    72  70  94 E7        30.09F
LAGO VISTA     CLOUDY    71  70  96 E5        30.11S FOG
SAN MARCOS     CLOUDY    81  72  74 SE7       30.08F
NEW BRAUNFELS  CLOUDY    83  72  69 SE9       30.04F
RANDOLPH AFB   MOSUNNY   80  72  75 SE5       30.06S
SAN ANTONIO    PTSUNNY   83  71  67 SE12      30.06F
STINSON        PTSUNNY   84  72  67 SE13      30.03F
PLEASANTON     NOT AVBL
LA GRANGE      CLOUDY    78  72  80 E8        30.07F
GIDDINGS       CLOUDY    75  68  77 SE10      30.13S
$$

EAST TEXAS

CITY           SKY/WX    TMP DP  RH WIND       PRES   REMARKS
PARIS          PTSUNNY   70  54  56 E10       30.18R
CLARKSVILLE    NOT AVBL
TYLER          SUNNY     75  62  64 SE9       30.13F
LONGVIEW       SUNNY     75  61  61 E7        30.14F
PALESTINE      CLEAR     76  66  70 E6        30.13F
NACOGDOCHES    MOSUNNY   73  63  68 E6        30.15F
$$

TEXAS HILL COUNTRY AND EDWARDS PLATEAU

CITY           SKY/WX    TMP DP  RH WIND       PRES   REMARKS
LLANO          CLOUDY    72  70  94 SE7       30.13F FOG
HORSESHOE BAY  DRIZZLE   70  69  96 CALM      30.11S
KERRVILLE      CLOUDY    72  70  93 E6        30.11S FOG
FREDERICKSBRG  CLOUDY    70  68  94 SE3       30.11S FOG
ROCKSPRINGS    CLOUDY    72  68  88 SE9       30.12F FOG
HONDO          PTSUNNY   81  71  71 S10       30.07F
UVALDE         MOCLDY    80  71  73 SE9       30.05F
DEL RIO        CLOUDY    79  69  71 E16       30.01F
$$

SOUTHEAST TEXAS

CITY           SKY/WX    TMP DP  RH WIND       PRES   REMARKS
COLLEGE STN    MOSUNNY   80  68  66 SE12      30.10F
CALDWELL       CLOUDY    75  70  83 MISG      30.13S
CROCKETT       NOT AVBL
BRENHAM        PTSUNNY   78  69  74 SE12      30.11F
HUNTSVILLE     MOSUNNY   79  66  64 VRB5      30.12F
CONROE         MOSUNNY   77  65  66 E8        30.13S
HOUSTON BUSH   PTSUNNY   76  67  73 SE10G18   30.12F
HOUSTON HOBBY  PTSUNNY   77  68  73 SE15      30.11F
PERLAND        CLOUDY    76  68  76 E12       30.13F
WHARTON        MOCLDY    80  72  76 E10       30.09F
$$

THE UPPER TEXAS COAST

CITY           SKY/WX    TMP DP  RH WIND       PRES   REMARKS
ORANGE         MOCLDY    78  66  66 E7        30.14F
PORT ARTHUR    PTSUNNY   80  68  66 SE7       30.12F
GALVESTON      CLOUDY    79  72  79 E14       30.13S
ANGLETON       CLOUDY    77  72  84 E12       30.10S
BAY CITY       CLOUDY    83  76  78 E12       30.08F
$$

TEXAS COASTAL BEND, RIO GRANDE PLAINS DEEP SOUTH TEXAS

CITY           SKY/WX    TMP DP  RH WIND       PRES   REMARKS
VICTORIA       PTSUNNY   81  76  84 SE17G23   30.06F
BEEVILLE       CLOUDY    84  80  86 SE12      30.03S
ROCKPORT       NOT AVBL
PORT ARANSAS   MOCLDY    84  78  81 SE10G17   30.04S
PORT LAVACA    CLOUDY    80  75  85 E18G24    30.06F
CORPUS CHRISTI PTSUNNY   87  76  69 SE15      30.02F
KINGSVILLE NAS PTSUNNY   88  78  72 SE15      30.01F
COTULLA        PTSUNNY   87  72  60 SE9       30.01F
LAREDO         PTSUNNY   88  70  55 S21       30.02F
BROWNSVILLE    MOSUNNY   86  73  65 S16       30.02F
PORT ISABEL    PTSUNNY   85  77  77 SE18      30.01S
HEBBRONVILLE     N/A     87  70  57 SE9G16    30.02F
MCALLEN        MOSUNNY   92  75  57 SE13G18   30.01F
WESLACO        MOSUNNY   89  73  59 S13G18    30.00S
FALFURRIAS     PTCLDY    90  75  61 SE10G16   29.99F
EDINBURG       MOCLDY    91  73  55 SE13      30.00F
$$



USA.gov is the U.S. government's official web portal to all federal, state and local government web resources and services.